This is the latest recevied weather packets stored in our database for station/object KC0UFP. If no packets are shown the sender has not sent any weather packets the latest 10 day(s).
| Time | Temp. | Humidity | Pressure | Rain* | Wind** | Luminosity | Snow |
|---|---|---|---|---|---|---|---|
| 1777641520 | 13.33° C | 69% | 1017.6 hPa | 0 mm | - | 303 W/m² | - |
| 1777641215 | 13.33° C | 72% | 1017.7 hPa | 0 mm | - | 268 W/m² | - |
| 1777640912 | 13.33° C | 71% | 1017.7 hPa | 0 mm | - | 257 W/m² | - |
| 1777640609 | 12.78° C | 73% | 1017.6 hPa | 0 mm | - | 245 W/m² | - |
| 1777640305 | 12.78° C | 75% | 1017.6 hPa | 0 mm | - | 201 W/m² | - |
| 1777640002 | 12.78° C | 75% | 1017.5 hPa | 0 mm | - | 211 W/m² | - |
| 1777639699 | 12.78° C | 76% | 1017.6 hPa | 0 mm | - | 192 W/m² | - |
| 1777639397 | 12.78° C | 76% | 1017.4 hPa | 0 mm | - | 172 W/m² | - |
| 1777639096 | 12.78° C | 76% | 1017.4 hPa | 0 mm | - | 154 W/m² | - |
| 1777638795 | 12.78° C | 77% | 1017.3 hPa | 0 mm | - | 153 W/m² | - |
| 1777638489 | 12.22° C | 78% | 1017.4 hPa | 0 mm | - | 137 W/m² | - |
| 1777638187 | 12.22° C | 79% | 1017.1 hPa | 0 mm | - | 119 W/m² | - |
| 1777637882 | 12.22° C | 79% | 1017.3 hPa | 0 mm | - | 104 W/m² | - |
| 1777637579 | 12.22° C | 80% | 1017.1 hPa | 0 mm | - | 95 W/m² | - |
| 1777637276 | 12.22° C | 82% | 1017.2 hPa | 0 mm | - | 86 W/m² | - |
| 1777636973 | 11.67° C | 81% | 1017.2 hPa | 0 mm | - | 74 W/m² | - |
| 1777636669 | 11.67° C | 82% | 1017.1 hPa | 0 mm | - | 63 W/m² | - |
| 1777636365 | 11.67° C | 82% | 1016.8 hPa | 0 mm | - | 51 W/m² | - |
| 1777636065 | 11.67° C | 83% | 1016.8 hPa | 0 mm | - | 43 W/m² | - |
| 1777635761 | 11.11° C | 84% | 1016.8 hPa | 0 mm | - | 38 W/m² | - |
| 1777635458 | 11.11° C | 84% | 1016.7 hPa | 0 mm | - | 31 W/m² | - |
| 1777635155 | 11.11° C | 84% | 1016.6 hPa | 0 mm | - | 27 W/m² | - |
| 1777634851 | 10.56° C | 84% | 1016.4 hPa | 0 mm | - | 21 W/m² | - |
| 1777634549 | 10.56° C | 84% | 1016.6 hPa | 0 mm | - | 16 W/m² | - |
| 1777634245 | 10.56° C | 85% | 1016.5 hPa | 0 mm | - | 12 W/m² | - |
* Rain latest hour (hover to see other rain measurements)
** Current wind speed in m/s (hover to see current wind gust speed)